Regional Weather Roundup
Issued by NWS Bismarck, ND

Home | Current Version | Previous Version | Text Only | Print | Product List | Glossary On
Versions: 1 2 3 4 5 6 7 8 9 10 11 12 13 14 15 16 17 18 19 20 21 22 23 24 25 26 27 28 29 30 31 32 33 34 35 36 37 38 39 40 41 42 43 44 45 46 47 48 49 50
871
ASUS43 KBIS 031802
RWRBIS

NWR BROADCAST TEXT
NATIONAL WEATHER SERVICE BISMARCK ND
100 PM CDT TUE MAY 03 2016

NOTE: "FAIR" INDICATES FEW OR NO CLOUDS BELOW 12,000 FEET WITH NO
SIGNIFICANT WEATHER AND/OR OBSTRUCTIONS TO VISIBILITY.


CITY           SKY/WX    TMP DP  RH WIND       PRES   REMARKS
WILLISTON      SUNNY     77  36  22 NW14G21   30.06S
MINOT          SUNNY     76  29  17 N17       30.01S
MINOT AFB      SUNNY     70  32  24 N16G24    30.00F
BISMARCK       SUNNY     75  37  25 N20       29.98F
DICKINSON      SUNNY     73  34  23 N10       30.04F
GARRISON         N/A     72  35  25 N13G22    30.01S
HETTINGER ARPT SUNNY     72  31  22 N8        30.07F
JAMESTOWN      SUNNY     69  33  26 N23G32    29.92R
CARRINGTON     FAIR      68  28  22 N25G32    29.97S
HAZEN          FAIR      73  36  25 N17G25    30.03S
OAKES            N/A    N/A N/A N/A MISG        N/A
STANLEY        FAIR      72  36  26 NE10      30.07R
$$

CITY           SKY/WX    TMP DP  RH WIND       PRES   REMARKS
GRAND FORKS    MOSUNNY   67  33  28 N24G35    29.88S
GRAND FORKS AF SUNNY     66  29  25 N20G31    29.90S
DEVILS LAKE    SUNNY     64  29  26 N20G29    29.96S
FARGO          SUNNY     71  28  20 N22G33    29.84S
CAVALIER       FAIR      63  32  31 N29G37    29.93R
GRAFTON        FAIR      64  32  29 N25G40    29.92R
GWINNER        FAIR      75  37  25 NW23G31   29.86F
LANGDON        FAIR      64  30  27 N21G31    29.95S
$$

CITY           SKY/WX    TMP DP  RH WIND       PRES   REMARKS
ABERDEEN       SUNNY     73  41  31 NW23G31   29.91F
MOBRIDGE       SUNNY     74  43  32 NW12      29.96F
BUFFALO          N/A     71  32  23 NW12      30.03F
RAPID CITY     SUNNY     68  37  32 N14G21    30.11S
GLASGOW        SUNNY     74  37  26 VRB3      30.09S
SIDNEY         SUNNY     73  36  25 N8        30.08S
WOLF POINT     SUNNY     77  39  25 CALM      30.08S
GLENDIVE       SUNNY     73  37  27 NE8       30.11F
MILES CITY     SUNNY     72  37  28 VRB3      30.11S
BAKER          SUNNY     72  34  24 VRB3      30.11F
$$

CITY           SKY/WX    TMP DP  RH WIND       PRES   REMARKS
BILLINGS       MOSUNNY   68  35  29 SW8       30.17F
GREAT FALLS    SUNNY     71  34  25 SW9       30.12S
$$





USA.gov is the U.S. government's official web portal to all federal, state and local government web resources and services.